Sultan Abdul Halim Airport
WMKA : now visible

Airfield :











YOU CAN JOIN US ON...

 
LOGIN :

Register | Disclaimer

   EN    FR    IT 

 









Legend :    VFR   Marginal VFR   IFR   Intensive IFR   Very Intensive IFR
Visi :
Ceiling :
>= 8 km
>= 3000ft
5 to 8 km
1000 to 3000 ft
1500m to 5 km
500 to 1000 ft
800 to 1500m
200 to 500 ft
< 800m
< 200 ft
Symbols :   Thunderstorms  Fog  Heavy snow  Heavy precipitations  Wind > 20 kt






- Airport Elevation : 15 ft
- IATA code : AOR


WMKA - Sultan Abdul Halim

CURRENT METAR :
  • 251800Z 00000KT 9999 FEW006 24/24 Q1011

EXPIRED METARs :
  • 251700Z 00000KT 9000 FEW008 24/24 Q1012 RERA
  • 251600Z 00000KT 9000 -RA FEW010 SCT025 24/24 Q1013

TAF TAF WMKA
Valid from the 25 at 18:00 until the 26 at 18:00 UTC


251700Z 2518/2618 VRB03KT 9000 FEW025
TEMPO 2522/2602 6000 -TSRA FEW010 FEW017CB
BECMG 2604/2606 27005KT FEW020
TEMPO 2604/2606 7000 -SHRA FEW017CB
BECMG 2614/2616 VRB03KT FEW030
WMFC FIR / Asia



MET'MAP, your aeronautical weather chart ! - Copyright ORBIFLY December 2007 - Disclaimer

ORBIFLY MET'MAP TEAM :

Programming & Development : Alexandra Zaïnal
Concept & original design : Baudouin d'Aumeries
Assistance for programming : Marc-Olivier Méhu
Technical & hardware support : Manuel Goepfert

Contact : metmap@orbifly.com




SOURCES & CREDITS :

   NOAA       Earth
Advisory